Weather History for Council Bluffs, IA

Change the Weather History Date:

Sunday, November 3, 2013

  Actual Average Record
Temperature  
Mean Temperature 45 °F -  
Max Temperature 55 °F 51 °F 80 °F (2008)
Min Temperature 35 °F 35 °F 26 °F (1997)
Degree Days  
Heating Degree Days 20    
Moisture  
Dew Point 35 °F    
Average Humidity 65    
Maximum Humidity 93    
Minimum Humidity 44    
Precipitation  
Precipitation 0.00 in - - ()
Sea Level Pressure  
Sea Level Pressure 29.91 in    
Wind  
Wind Speed 15 mph (SSE)    
Max Wind Speed 32 mph    
Max Gust Speed 43 mph    
Visibility 10 miles    
Events      
Averages and records for this station are not official NWS values.
T = Trace of Precipitation, MM = Missing Value Source: NWS Daily Summary

Daily Weather History Graph

Daily Weather History Graph

Search for Another Location

Airport:

Trip Planner

Search our weather history database for the weather conditions in past years. The results will help you decide how hot, cold, wet, or windy it might be!

Date:

Astronomy

Nov. 03, 2013 Rise Set
Actual Time 6:57 AM CST 5:15 PM CST
Civil Twilight 6:28 AM CST 5:44 PM CST
Nautical Twilight 5:55 AM CST 6:17 PM CST
Astronomical Twilight 5:23 AM CST 6:49 PM CST
Moon 7:02 AM CST (11/3) 5:31 PM CST (11/3)
Length of Visible Light 11h 16m
Length of Day
10h 18m
New Moon, 0% of the Moon is Illuminated
Nov 3
New Moon
Nov 9
First Quarter
Nov 17
Full
Nov 25
Last Quarter
Dec 2
New

Hourly Weather History & Observations

Time (CST) Temp. Windchill Dew Point Humidity Pressure Visibility Wind Dir Wind Speed Gust Speed Precip Events Conditions
12:15 AM 39.2 °F 33.6 °F 33.8 °F 81% 30.08 in 10.0 mi SSE 8.1 mph - N/A   Clear
12:35 AM 39.2 °F 33.6 °F 32.0 °F 75% 30.08 in 10.0 mi SSE 8.1 mph - N/A   Clear
12:55 AM 39.2 °F 33.0 °F 33.8 °F 81% 30.07 in 10.0 mi SSE 9.2 mph - N/A   Clear
1:15 AM 39.2 °F 33.6 °F 33.8 °F 81% 30.07 in 10.0 mi SSE 8.1 mph - N/A   Clear
1:35 AM 39.2 °F 32.5 °F 33.8 °F 81% 30.07 in 10.0 mi SSE 10.4 mph - N/A   Clear
1:55 AM 39.2 °F 33.6 °F 33.8 °F 81% 30.08 in 10.0 mi SSE 8.1 mph - N/A   Clear
1:15 AM 37.4 °F 31.4 °F 33.8 °F 87% 30.08 in 10.0 mi SSE 8.1 mph - N/A   Clear
1:35 AM 37.4 °F 31.4 °F 33.8 °F 87% 30.07 in 10.0 mi SE 8.1 mph - N/A   Clear
1:55 AM 35.6 °F 28.6 °F 32.0 °F 87% 30.07 in 10.0 mi SE 9.2 mph - N/A   Clear
2:15 AM 35.6 °F 29.2 °F 32.0 °F 87% 30.06 in 10.0 mi SE 8.1 mph - N/A   Clear
2:35 AM 35.6 °F 28.6 °F 32.0 °F 87% 30.05 in 10.0 mi SE 9.2 mph - N/A   Clear
2:55 AM 35.6 °F 28.0 °F 33.8 °F 93% 30.05 in 10.0 mi SSE 10.4 mph - N/A   Clear
3:15 AM 37.4 °F 30.3 °F 33.8 °F 87% 30.05 in 10.0 mi South 10.4 mph - N/A   Clear
3:35 AM 37.4 °F 30.3 °F 33.8 °F 87% 30.05 in 10.0 mi South 10.4 mph - N/A   Clear
3:55 AM 37.4 °F 30.8 °F 33.8 °F 87% 30.04 in 10.0 mi South 9.2 mph - N/A   Clear
4:15 AM 37.4 °F 30.8 °F 33.8 °F 87% 30.04 in 10.0 mi South 9.2 mph - N/A   Clear
4:35 AM 35.6 °F 29.2 °F 32.0 °F 87% 30.04 in 10.0 mi SSE 8.1 mph - N/A   Clear
4:55 AM 35.6 °F 29.2 °F 32.0 °F 87% 30.03 in 10.0 mi SSE 8.1 mph - N/A   Clear
5:15 AM 37.4 °F 29.8 °F 33.8 °F 87% 30.03 in 10.0 mi SSE 11.5 mph - N/A   Clear
5:35 AM 37.4 °F 29.3 °F 33.8 °F 87% 30.02 in 10.0 mi SSE 12.7 mph - N/A   Clear
5:55 AM 37.4 °F 29.8 °F 33.8 °F 87% 30.01 in 10.0 mi SSE 11.5 mph - N/A   Clear
6:15 AM 37.4 °F 29.8 °F 33.8 °F 87% 30.00 in 10.0 mi SSE 11.5 mph 17.3 mph N/A   Clear
6:35 AM 37.4 °F 30.3 °F 33.8 °F 87% 30.00 in 10.0 mi SSE 10.4 mph 17.3 mph N/A   Clear
6:55 AM 37.4 °F 28.9 °F 33.8 °F 87% 30.00 in 10.0 mi SSE 13.8 mph - N/A   Clear
7:15 AM 39.2 °F 31.2 °F 33.8 °F 81% 29.99 in 10.0 mi SSE 13.8 mph 20.7 mph N/A   Clear
7:35 AM 39.2 °F 30.8 °F 33.8 °F 81% 29.99 in 10.0 mi SSE 15.0 mph 21.9 mph N/A   Clear
7:55 AM 41.0 °F 32.8 °F 33.8 °F 76% 29.99 in 10.0 mi SSE 16.1 mph 21.9 mph N/A   Clear
8:15 AM 42.8 °F 34.5 °F 35.6 °F 76% 29.99 in 10.0 mi SSE 18.4 mph - N/A   Clear
8:35 AM 44.6 °F 36.6 °F 35.6 °F 71% 29.98 in 10.0 mi SSE 19.6 mph 26.5 mph N/A   Clear
8:55 AM 46.4 °F 38.1 °F 33.8 °F 62% 29.97 in 10.0 mi SSE 24.2 mph - N/A   Clear
9:15 AM 46.4 °F 38.1 °F 33.8 °F 62% 29.96 in 10.0 mi SSE 24.2 mph 33.4 mph N/A   Clear
9:35 AM 48.2 °F - 33.8 °F 58% 29.95 in 10.0 mi SSE 26.5 mph 34.5 mph N/A   Clear
9:55 AM 50.0 °F - 35.6 °F 58% 29.94 in 10.0 mi SSE 26.5 mph 34.5 mph N/A   Clear
10:15 AM 51.8 °F - 35.6 °F 54% 29.92 in 10.0 mi SSE 26.5 mph 40.3 mph N/A   Clear
10:35 AM 51.8 °F - 33.8 °F 50% 29.91 in 10.0 mi SSE 27.6 mph 41.4 mph N/A   Clear
10:55 AM 53.6 °F - 33.8 °F 47% 29.90 in 10.0 mi South 29.9 mph 41.4 mph N/A   Clear
11:15 AM 53.6 °F - 32.0 °F 44% 29.89 in 10.0 mi SSE 31.1 mph 41.4 mph N/A   Clear
11:35 AM 55.4 °F - 33.8 °F 44% 29.88 in 10.0 mi SSE 32.2 mph 42.6 mph N/A   Clear
11:55 AM 55.4 °F - 33.8 °F 44% 29.87 in 10.0 mi South 26.5 mph 36.8 mph N/A   Clear
12:15 PM 55.4 °F - 33.8 °F 44% 29.85 in 10.0 mi SSE 28.8 mph - N/A   Clear
12:35 PM 55.4 °F - 33.8 °F 44% 29.84 in 10.0 mi SSE 25.3 mph 35.7 mph N/A   Clear
12:55 PM 55.4 °F - 33.8 °F 44% 29.83 in 10.0 mi SSE 31.1 mph 40.3 mph N/A   Clear
1:15 PM 55.4 °F - 33.8 °F 44% 29.81 in 10.0 mi SSE 26.5 mph 41.4 mph N/A   Clear
1:35 PM 55.4 °F - 33.8 °F 44% 29.81 in 10.0 mi SSE 21.9 mph 39.1 mph N/A   Clear
1:55 PM 55.4 °F - 33.8 °F 44% 29.79 in 10.0 mi SSE 26.5 mph 36.8 mph N/A   Clear
2:15 PM 55.4 °F - 33.8 °F 44% 29.79 in 10.0 mi South 28.8 mph 38.0 mph N/A   Clear
2:35 PM 55.4 °F - 33.8 °F 44% 29.79 in 10.0 mi South 26.5 mph 41.4 mph N/A   Clear
2:55 PM 55.4 °F - 35.6 °F 47% 29.80 in 10.0 mi South 26.5 mph 39.1 mph N/A   Clear
3:15 PM 55.4 °F - 35.6 °F 47% 29.79 in 10.0 mi South 26.5 mph 38.0 mph N/A   Clear
3:35 PM 55.4 °F - 35.6 °F 47% 29.78 in 10.0 mi SSE 27.6 mph - N/A   Clear
3:55 PM 55.4 °F - 35.6 °F 47% 29.78 in 10.0 mi SSE 25.3 mph 33.4 mph N/A   Clear
4:15 PM 55.4 °F - 35.6 °F 47% 29.78 in 10.0 mi SSE 23.0 mph 31.1 mph N/A   Clear
4:35 PM 55.4 °F - 35.6 °F 47% 29.77 in 10.0 mi SSE 21.9 mph 33.4 mph N/A   Clear
4:55 PM 53.6 °F - 35.6 °F 51% 29.76 in 10.0 mi SSE 23.0 mph - N/A   Clear
5:15 PM 53.6 °F - 35.6 °F 51% 29.75 in 10.0 mi SSE 24.2 mph 33.4 mph N/A   Clear
5:35 PM 51.8 °F - 35.6 °F 54% 29.77 in 10.0 mi SSE 21.9 mph 27.6 mph N/A   Clear
5:55 PM 51.8 °F - 35.6 °F 54% 29.77 in 10.0 mi SSE 19.6 mph 25.3 mph N/A   Clear
6:15 PM 51.8 °F - 35.6 °F 54% 29.76 in 10.0 mi SSE 21.9 mph 33.4 mph N/A   Clear
6:35 PM 51.8 °F - 35.6 °F 54% 29.77 in 10.0 mi SSE 21.9 mph - N/A   Clear
6:55 PM 51.8 °F - 35.6 °F 54% 29.78 in 10.0 mi South 21.9 mph 28.8 mph N/A   Clear
7:15 PM 51.8 °F - 37.4 °F 58% 29.78 in 10.0 mi SSE 21.9 mph 27.6 mph N/A   Clear
7:35 PM 51.8 °F - 37.4 °F 58% 29.79 in 10.0 mi South 20.7 mph 28.8 mph N/A   Clear
7:55 PM 51.8 °F - 37.4 °F 58% 29.79 in 10.0 mi South 18.4 mph 28.8 mph N/A   Partly Cloudy
8:15 PM 51.8 °F - 37.4 °F 58% 29.79 in 10.0 mi SSE 19.6 mph 27.6 mph N/A   Mostly Cloudy
8:35 PM 51.8 °F - 37.4 °F 58% 29.80 in 10.0 mi SSE 18.4 mph - N/A   Scattered Clouds
8:55 PM 51.8 °F - 37.4 °F 58% 29.80 in 10.0 mi SSE 20.7 mph - N/A   Clear
9:15 PM 51.8 °F - 37.4 °F 58% 29.80 in 10.0 mi South 19.6 mph 27.6 mph N/A   Clear
9:35 PM 51.8 °F - 37.4 °F 58% 29.80 in 10.0 mi South 16.1 mph 25.3 mph N/A   Clear
9:55 PM 51.8 °F - 37.4 °F 58% 29.80 in 10.0 mi SSE 21.9 mph - N/A   Clear
10:15 PM 51.8 °F - 37.4 °F 58% 29.80 in 10.0 mi South 17.3 mph 27.6 mph N/A   Partly Cloudy
10:35 PM 51.8 °F - 37.4 °F 58% 29.80 in 10.0 mi South 19.6 mph 27.6 mph N/A   Scattered Clouds
10:55 PM 51.8 °F - 37.4 °F 58% 29.80 in 10.0 mi South 19.6 mph - N/A   Overcast